[[[{"header":{"parameterUnit":"kt","parameterCategory":2,"dx":1,"dy":1,"la1":30.253999710083008,"la2":30.299108505249023,"lo1":-89.0895004272461,"lo2":-89.04439544677734,"nx":28,"ny":28,"refTime":"2022-09-17T21:00:00:Z","depth":0,"parameterNumber":1,"parameterNumberName":"U-component_of_WINDS"},"data":[0.987,0.9815,0.9772,0.9687,0.9633,0.9566,0.9527,0.9472,0.9416,0.9328,0.9268,0.9214,0.9137,0.9051,0.8981,0.8958,0.893,0.8944,0.8914,0.8898,0.8892,0.8887,0.8898,0.894,0.894,0.8936,0.8936,0.8936,0.9863,0.981,0.9753,0.9668,0.9617,0.9578,0.9505,0.9464,0.9404,0.9334,0.9273,0.919,0.9117,0.9032,0.8952,0.8921,0.8895,0.8903,0.8903,0.8891,0.8872,0.8885,0.8925,0.8925,0.8925,0.8925,0.8925,0.8925,0.9838,0.9807,0.973,0.9666,0.9611,0.9553,0.9513,0.945,0.939,0.9306,0.9261,0.919,0.9108,0.8988,0.8935,0.8876,0.8858,0.885,0.8847,0.8846,0.8851,0.8861,0.886,0.8859,0.8859,0.8859,0.8859,0,0.9805,0.9771,0.9713,0.9642,0.9592,0.9531,0.9467,0.9442,0.9348,0.9302,0.9231,0.9181,0.9082,0.9007,0.8921,0.8866,0.8815,0.8805,0.8799,0.8819,0.8849,0.8831,0.8802,0.8805,0.8804,0.8804,0.8803,0.8803,0.9775,0.9744,0.9641,0.9606,0.956,0.9504,0.946,0.938,0.9337,0.9243,0.9217,0.9142,0.9078,0.8968,0.8887,0.8811,0.8785,0.8791,0.8773,0.8795,0.8782,0.8785,0.878,0.8796,0.8797,0.8797,0.8798,0,0.9762,0.9689,0.9626,0.9525,0.9498,0.9469,0.938,0.9343,0.9284,0.9224,0.9205,0.911,0.904,0.8958,0.8859,0.8818,0.8762,0.8739,0.879,0.878,0.8776,0.8777,0.878,0.8776,0.8734,0.8734,0.8734,0,0.9706,0.9668,0.956,0.9527,0.9481,0.9402,0.9357,0.9301,0.9231,0.9183,0.9115,0.907,0.8973,0.8916,0.8855,0.8794,0.8776,0.874,0.8723,0.8745,0.8749,0.8717,0.8714,0.869,0.869,0.8691,0.8691,0,0.9692,0.9589,0.9536,0.95,0.9387,0.9363,0.9314,0.9234,0.9191,0.9121,0.9092,0.9016,0.8973,0.8914,0.8837,0.8828,0.8761,0.8732,0.8724,0.8726,0.8712,0.8713,0.8739,0.8691,0.8691,0.8691,0.8691,0,0.9634,0.9571,0.9505,0.9409,0.9384,0.9348,0.927,0.922,0.914,0.91,0.9044,0.8987,0.8929,0.8906,0.8823,0.8832,0.8794,0.8754,0.8752,0.874,0.8715,0.8739,0.8773,0.8773,0.8731,0.8731,0.8732,0,0.9638,0.9552,0.9483,0.9421,0.9369,0.9297,0.9254,0.9186,0.9129,0.9075,0.9011,0.8948,0.8914,0.8882,0.8852,0.8782,0.877,0.8782,0.8698,0.8696,0.8721,0.8752,0.8777,0.8775,0.8735,0.8735,0.8734,0,0.9631,0.9496,0.949,0.9445,0.9344,0.93,0.9252,0.9173,0.9141,0.9071,0.9026,0.8936,0.8906,0.8855,0.88,0.8773,0.8776,0.8743,0.8739,0.875,0.873,0.8754,0.8754,0.8744,0.8743,0.8743,0.8737,0,0.9558,0.9506,0.9486,0.9391,0.9344,0.9301,0.9217,0.9178,0.9132,0.9073,0.9005,0.8925,0.8842,0.8821,0.8773,0.8739,0.8731,0.8699,0.8668,0.869,0.8686,0.8684,0.8682,0.8681,0.8679,0.8678,0,0,0.9579,0.9501,0.9427,0.9378,0.9334,0.9259,0.922,0.9167,0.9062,0.9032,0.9015,0.8877,0.8812,0.8738,0.8739,0.8705,0.869,0.8685,0.8681,0.8682,0.8682,0.8679,0.8679,0.8676,0.8676,0.8675,0.8675,0,0.9535,0.9477,0.9441,0.9384,0.9298,0.9238,0.9229,0.9129,0.9089,0.9023,0.8958,0.8907,0.8799,0.8738,0.8693,0.8693,0.8645,0.8674,0.8703,0.8672,0.8674,0.8676,0.8674,0.8675,0.8672,0.8672,0.8672,0,0.9511,0.944,0.9414,0.9312,0.9254,0.9202,0.9151,0.9098,0.9058,0.8973,0.8909,0.8852,0.8763,0.8706,0.8677,0.8659,0.8609,0.8609,0.8614,0.8608,0.8573,0.8577,0.8579,0.8545,0.8545,0.8545,0,0,0.9484,0.9435,0.9332,0.9296,0.9265,0.9175,0.9138,0.9088,0.9012,0.8982,0.8909,0.8835,0.877,0.8729,0.8664,0.8614,0.8587,0.8597,0.8603,0.8609,0.8606,0.8572,0.8575,0.8544,0.8544,0.8544,0,0,0.947,0.935,0.9317,0.9266,0.9199,0.9091,0.9072,0.9027,0.8961,0.8956,0.8864,0.8841,0.8785,0.8731,0.8738,0.8651,0.8623,0.8619,0.8688,0.8694,0.87,0.8713,0.867,0,0,0,0,0,0.9382,0.9365,0.9337,0.9316,0.9185,0.9108,0.9091,0.9017,0.8999,0.8985,0.8916,0.8867,0.8716,0.872,0.8698,0.8691,0.8541,0.8541,0.8542,0.8619,0.8626,0.8633,0,0,0,0,0,0,0.9373,0.9348,0.9337,0.9231,0.9201,0.9108,0.9061,0.904,0.8998,0.899,0.8882,0.8864,0.8797,0.8725,0.8707,0.8702,0.8676,0.8541,0.8542,0.8542,0.8621,0.8628,0.8633,0,0,0,0,0,0.9366,0.9345,0.9156,0.923,0.9204,0.9102,0.9061,0.9043,0.9009,0.8902,0.8882,0.8957,0.8799,0.8778,0.8714,0.8712,0.8688,0.8682,0.8541,0.8542,0.8542,0.8624,0,0,0,0,0,0,0.936,0.9327,0.9149,0.9138,0.9232,0.9106,0.9084,0.9047,0.8922,0.8902,0.8973,0.8968,0.88,0.8784,0.8768,0.872,0.8698,0.8692,0.8687,0.8542,0.8542,0.8542,0,0,0,0,0,0,0.9337,0.9319,0.9143,0.9149,0.9138,0.9109,0.909,0.9024,0.8921,0.8999,0.8991,0.8972,0.8822,0.8788,0.8775,0.8675,0.8706,0.8699,0.8695,0.8692,0.8542,0.8542,0,0,0,0,0,0,0.9328,0.9312,0.9151,0.9143,0.9133,0.9005,0.9049,0.8918,0.8931,0.9006,0.8929,0.8928,0.8827,0.8813,0.878,0.8686,0.8678,0.8706,0.8701,0.8698,0.8696,0,0,0,0,0,0,0,0.932,0.9449,0.9214,0.9138,0.9129,0.9037,0.9034,0.9031,0.893,0.893,0.8929,0.8929,0.8742,0.8735,0.8728,0.8695,0,0,0.8706,0.8703,0,0,0,0,0,0,0,0,0.9454,0.945,0.9214,0.9211,0.9209,0.9037,0.9034,0.9032,0.893,0.893,0.8929,0.8929,0.874,0.8734,0.8729,0,0,0,0,0,0,0,0,0,0,0,0,0,0,0,0.9213,0.9212,0,0.9037,0.9035,0.9033,0.893,0.893,0.8929,0.8929,0.8738,0.8734,0.8729,0,0,0,0,0,0,0,0,0,0,0,0,0,0,0,0,0,0,0,0,0,0,0,0,0,0,0,0,0,0,0,0,0,0,0,0,0,0,0,0,0,0,0,0,0,0,0,0,0,0,0,0,0,0,0,0,0,0,0,0,0,0,0,0,0,0,0,0,0]}],[{"header":{"parameterUnit":"kt","parameterCategory":2,"dx":1,"dy":1,"la1":30.253999710083008,"la2":30.299108505249023,"lo1":-89.0895004272461,"lo2":-89.04439544677734,"nx":28,"ny":28,"refTime":"2022-09-17T21:00:00:Z","depth":0,"parameterNumber":2,"parameterNumberName":"V-component_of_WINDS"},"data":[-4.8852,-4.8954,-4.8962,-4.9082,-4.911,-4.9192,-4.9224,-4.9266,-4.93,-4.9398,-4.9455,-4.9472,-4.9507,-4.9575,-4.9636,-4.9641,-4.9667,-4.9698,-4.9699,-4.9555,-4.9535,-4.9516,-4.9493,-4.9703,-4.9704,-4.9847,-4.9848,-4.9849,-4.8745,-4.8774,-4.884,-4.8909,-4.8965,-4.894,-4.8992,-4.904,-4.9114,-4.9157,-4.9214,-4.93,-4.9368,-4.9393,-4.9459,-4.9505,-4.9496,-4.9522,-4.9518,-4.9524,-4.9371,-4.9346,-4.9528,-4.9528,-4.9528,-4.9528,-4.9528,-4.9528,-4.8554,-4.8616,-4.8662,-4.8734,-4.877,-4.8816,-4.8875,-4.8895,-4.8958,-4.9029,-4.9024,-4.9107,-4.915,-4.9232,-4.926,-4.9324,-4.9295,-4.9326,-4.9333,-4.9341,-4.9349,-4.9141,-4.9335,-4.9335,-4.9334,-4.9334,-4.9333,0,-4.8417,-4.8419,-4.8483,-4.8549,-4.8602,-4.8653,-4.8701,-4.8737,-4.8742,-4.8794,-4.8869,-4.8913,-4.9,-4.907,-4.9132,-4.9155,-4.9132,-4.913,-4.9151,-4.9155,-4.9151,-4.9154,-4.8903,-4.9124,-4.9123,-4.9121,-4.912,-4.912,-4.8224,-4.8295,-4.8347,-4.839,-4.8419,-4.8489,-4.8532,-4.8531,-4.8576,-4.8634,-4.8687,-4.8757,-4.8814,-4.8931,-4.895,-4.9013,-4.9003,-4.9086,-4.9012,-4.9013,-4.9004,-4.9,-4.9007,-4.9101,-4.9103,-4.9105,-4.9107,0,-4.8115,-4.8127,-4.8239,-4.8282,-4.8295,-4.8369,-4.8405,-4.8465,-4.8477,-4.8561,-4.858,-4.8598,-4.867,-4.8676,-4.876,-4.876,-4.8878,-4.8866,-4.8864,-4.8862,-4.8937,-4.893,-4.9182,-4.9215,-4.8997,-4.8999,-4.9001,0,-4.7956,-4.8048,-4.806,-4.8124,-4.8226,-4.8223,-4.8324,-4.8344,-4.8381,-4.8447,-4.8423,-4.8485,-4.8483,-4.8545,-4.8546,-4.8644,-4.8659,-4.8665,-4.8664,-4.8668,-4.8667,-4.869,-4.868,-4.866,-4.8658,-4.8657,-4.8656,0,-4.7784,-4.7898,-4.8002,-4.803,-4.8085,-4.8133,-4.8158,-4.82,-4.8241,-4.8296,-4.8322,-4.8385,-4.842,-4.8468,-4.8469,-4.8418,-4.8588,-4.8519,-4.8594,-4.8595,-4.8632,-4.8629,-4.8851,-4.8654,-4.8654,-4.8654,-4.8653,0,-4.7656,-4.7714,-4.7863,-4.7908,-4.7938,-4.8006,-4.8069,-4.8128,-4.8174,-4.8179,-4.8221,-4.8205,-4.8292,-4.8222,-4.834,-4.8274,-4.8308,-4.8322,-4.8327,-4.8335,-4.8257,-4.8381,-4.8592,-4.8614,-4.8343,-4.834,-4.8338,0,-4.7456,-4.761,-4.7609,-4.7749,-4.7821,-4.779,-4.7864,-4.7906,-4.7919,-4.7981,-4.7994,-4.8064,-4.8014,-4.8036,-4.8094,-4.811,-4.8196,-4.8099,-4.8185,-4.8188,-4.8174,-4.8369,-4.8399,-4.8546,-4.8305,-4.8308,-4.8311,0,-4.7303,-4.737,-4.7395,-4.7426,-4.7482,-4.7541,-4.7627,-4.7696,-4.7737,-4.7786,-4.7857,-4.7954,-4.792,-4.7957,-4.795,-4.801,-4.8138,-4.7965,-4.7966,-4.7996,-4.8288,-4.8317,-4.8341,-4.812,-4.8124,-4.8127,-4.8284,0,-4.7107,-4.7185,-4.7254,-4.7324,-4.7371,-4.746,-4.7467,-4.7515,-4.7505,-4.7517,-4.7622,-4.7656,-4.7724,-4.7754,-4.7743,-4.7879,-4.7857,-4.7819,-4.7751,-4.7879,-4.793,-4.7952,-4.7673,-4.7671,-4.767,-4.7668,0,0,-4.6913,-4.7025,-4.702,-4.7105,-4.7144,-4.711,-4.7203,-4.7237,-4.7306,-4.7333,-4.7296,-4.7438,-4.7468,-4.7594,-4.7634,-4.7662,-4.7686,-4.7641,-4.7818,-4.7835,-4.785,-4.7905,-4.7927,-4.7665,-4.7665,-4.7664,-4.7664,0,-4.6843,-4.6877,-4.697,-4.7006,-4.7058,-4.7066,-4.7089,-4.7134,-4.7146,-4.7249,-4.7218,-4.7281,-4.7395,-4.743,-4.7462,-4.7626,-4.7598,-4.7647,-4.7733,-4.7801,-4.782,-4.7837,-4.7895,-4.7916,-4.766,-4.766,-4.766,0,-4.6693,-4.6727,-4.6773,-4.6862,-4.6895,-4.6969,-4.69,-4.6981,-4.7036,-4.6992,-4.7094,-4.7114,-4.7161,-4.728,-4.7333,-4.73,-4.7518,-4.745,-4.7461,-4.7467,-4.7533,-4.7555,-4.7576,-4.731,-4.7308,-4.7307,0,0,-4.6632,-4.6704,-4.674,-4.6847,-4.6871,-4.6885,-4.6924,-4.6918,-4.6962,-4.698,-4.7005,-4.7048,-4.7114,-4.7157,-4.7219,-4.7348,-4.7357,-4.7407,-4.7424,-4.7437,-4.745,-4.752,-4.7542,-4.7302,-4.7302,-4.7302,0,0,-4.6602,-4.6648,-4.663,-4.6756,-4.68,-4.6841,-4.6905,-4.6884,-4.6941,-4.6931,-4.6922,-4.6933,-4.7044,-4.7064,-4.7001,-4.7195,-4.7128,-4.7143,-4.7178,-4.7199,-4.7215,-4.7207,-4.6934,0,0,0,0,0,-4.6535,-4.6642,-4.6625,-4.6648,-4.6758,-4.685,-4.6864,-4.6861,-4.6813,-4.6865,-4.6882,-4.6849,-4.7028,-4.6972,-4.6994,-4.7064,-4.7242,-4.7253,-4.7263,-4.7338,-4.736,-4.7378,0,0,0,0,0,0,-4.6543,-4.6571,-4.6622,-4.6668,-4.6693,-4.6846,-4.6766,-4.6768,-4.6808,-4.68,-4.6847,-4.6851,-4.6848,-4.6961,-4.698,-4.7047,-4.6928,-4.7246,-4.7255,-4.7264,-4.7346,-4.7364,-4.7379,0,0,0,0,0,-4.655,-4.6572,-4.6751,-4.6666,-4.6688,-4.6709,-4.6762,-4.6763,-4.6793,-4.682,-4.6823,-4.6787,-4.685,-4.6866,-4.6972,-4.7039,-4.6914,-4.6921,-4.7252,-4.7259,-4.7266,-4.7354,0,0,0,0,0,0,-4.6555,-4.6573,-4.6755,-4.6762,-4.6626,-4.67,-4.6712,-4.6758,-4.681,-4.6814,-4.6759,-4.6752,-4.6853,-4.6865,-4.6877,-4.7036,-4.6903,-4.6911,-4.6915,-4.7258,-4.7263,-4.7268,0,0,0,0,0,0,-4.6561,-4.6579,-4.6758,-4.6707,-4.6708,-4.6692,-4.6703,-4.6792,-4.6811,-4.6746,-4.6742,-4.6755,-4.6834,-4.6865,-4.6874,-4.7013,-4.6895,-4.6902,-4.6907,-4.691,-4.7262,-4.7267,0,0,0,0,0,0,-4.6568,-4.6584,-4.6706,-4.6706,-4.6706,-4.6777,-4.6771,-4.6884,-4.6769,-4.6744,-4.6759,-4.6754,-4.6835,-4.6844,-4.6872,-4.7008,-4.7012,-4.6895,-4.69,-4.6903,-4.6906,0,0,0,0,0,0,0,-4.6574,-4.6475,-4.6718,-4.6705,-4.6705,-4.682,-4.6822,-4.6824,-4.6768,-4.6764,-4.676,-4.6756,-4.6855,-4.6863,-4.687,-4.7003,0,0,-4.6894,-4.6898,0,0,0,0,0,0,0,0,-4.6468,-4.6473,-4.6718,-4.6719,-4.6721,-4.6821,-4.6822,-4.6823,-4.6768,-4.6764,-4.6761,-4.6758,-4.6857,-4.6863,-4.6869,0,0,0,0,0,0,0,0,0,0,0,0,0,0,0,-4.6718,-4.6719,0,-4.6821,-4.6822,-4.6823,-4.6767,-4.6764,-4.6761,-4.6759,-4.6859,-4.6864,-4.6869,0,0,0,0,0,0,0,0,0,0,0,0,0,0,0,0,0,0,0,0,0,0,0,0,0,0,0,0,0,0,0,0,0,0,0,0,0,0,0,0,0,0,0,0,0,0,0,0,0,0,0,0,0,0,0,0,0,0,0,0,0,0,0,0,0,0,0,0,0]}]]]